Regional Weather Roundup
Issued by NWS

Home | Current Version | Previous Version | Text Only | Print | Product List | Glossary Off
Versions: 1 2 3 4 5 6 7 8 9 10 11 12 13 14 15 16 17 18 19 20 21 22 23 24 25 26 27 28 29 30 31 32 33 34 35 36 37 38 39 40 41 42 43 44 45 46 47 48 49 50

000
ASUS43 KDTX 290501
RWRMI
MICHIGAN HOURLY REGIONAL WEATHER ROUNDUP
NATIONAL WEATHER SERVICE DETROIT/PONTIAC MI
100 AM EDT SAT AUG 29 2015

NOTE: "FAIR" INDICATES FEW OR NO CLOUDS BELOW 12,000 FEET WITH NO
SIGNIFICANT WEATHER AND/OR OBSTRUCTION TO VISIBILITY.

MIZ047>049-052>055-059>063-066>070-074>076-081>083-290600-
SOUTHEAST LOWER MICHIGAN

CITY           SKY/WX    TMP DP  RH WIND       PRES   REMARKS
ADRIAN         CLOUDY    64  60  87 S5        30.17R
ALMA           LGT RAIN  62  62  97 CALM      30.15R
ANN ARBOR      CLOUDY    61  60  97 CALM      30.16R
BAD AXE        MOCLDY    61  58  91 S6        30.14S
CARO           MOCLDY    57  57  98 CALM      30.14R FOG
DETROIT CITY   MOCLDY    66  59  78 CALM      30.15S
DETROIT        MOCLDY    66  62  87 S3        30.16R
FLINT          CLOUDY    67  60  78 SW5       30.15R
GROSSE ILE     MOCLDY    70  64  83 S7        30.15R
HILLSDALE      CLOUDY    63  63  99 CALM      30.16R
HOWELL         CLOUDY    66  61  84 S6        30.15S

CITY           SKY/WX    TMP DP  RH WIND       PRES   REMARKS
JACKSON        CLOUDY    65  60  84 SE5       30.15S
LAMBERTVILLE   MOCLDY    65  60  83 S3        30.16R
LANSING        LGT RAIN  65  62  90 CALM      30.15R
LAPEER         FAIR      58  58  99 CALM      30.15S
MASON          RAIN      65  60  83 CALM      30.15S
MONROE         MOCLDY    65  62  90 S3        30.15
MT. CLEMENS    CLOUDY    64  60  88 S3        30.13S
PONTIAC        CLOUDY    65  60  84 CALM      30.15S
PORT HOPE        N/A     64  58  80 VRB5      30.12S
PORT HURON     PTCLDY    57  57 100 CALM      30.16S
TRI CITIES     MOCLDY    65  61  87 SW5       30.14R
MIDLAND        MOCLDY    62  60  96 CALM      30.13R
TROY           CLOUDY    67  60  79 CALM      30.17R
SAGINAW HB     MOCLDY    63  61  94 CALM      30.13S
$$
MIZ043>046-050>051-056>058-064>065-071>073-077>080-290600-
SOUTHWEST LOWER MICHIGAN

CITY           SKY/WX    TMP DP  RH WIND       PRES   REMARKS
BATTLE CREEK   CLOUDY    67  62  84 CALM      30.14S
BENTON HARBOR  CLOUDY    66  61  84 E3        30.11R
BIG RAPIDS     LGT RAIN  61  60  94 W5        30.15R
COLDWATER      CLOUDY    64  62  94 CALM      30.14S
FREMONT        RAIN      62  61  98 CALM      30.15F
HOLLAND        CLOUDY    67  63  87 NE3       30.13S
GRAND RAPIDS   LGT RAIN  66  65  96 CALM      30.15R
IONIA          DRIZZLE   64  63  97 CALM      30.14R
KALAMAZOO      CLOUDY    67  62  84 CALM      30.14R
LUDINGTON      DRIZZLE   64  58  81 SW7       30.14S
MARSHALL       CLOUDY    66  61  85 CALM      30.14S
MOUNT PLEASANT LGT RAIN  65  61  89 CALM      30.14R
MUSKEGON       LGT RAIN  66  61  84 N7        30.14S
SOUTH HAVEN    CLOUDY    66  61  86 E3        30.11S
$$
MIZ016>042-290600-
NORTHERN LOWER MICHIGAN

CITY           SKY/WX    TMP DP  RH WIND       PRES   REMARKS
ALPENA         CLOUDY    64  58  80 SW5       30.10S
BEAVER ISLAND  CLOUDY    64  62  91 SW13G21   30.05S
BELLAIRE       LGT RAIN  64  61  89 CALM      30.10S
CADILLAC       LGT RAIN  61  59  93 SW7       30.13S
CHARLEVOIX     DRIZZLE   64  63  96 S5        30.11F
FRANKFORT      DRIZZLE   64  59  83 W5        30.12R
GAYLORD        LGT RAIN  63  60  90 W10       30.12R FOG
GRAYLING       RAIN      61  59  94 W6        30.13S
HARBOR SPRINGS RAIN      64  62  93 W6G21     30.08S
HOUGHTON LAKE  LGT RAIN  64  59  83 SW6       30.14R
MANISTEE       CLOUDY    63  59  88 CALM      30.14R
OSCODA         MOCLDY    58  56  95 SW3       30.11S
PELLSTON       HVY RAIN  65  63  93 VRB5      30.07F FOG
ROGERS CITY    CLOUDY    64  58  80 SW5       30.10R
TRAVERSE CITY  LGT RAIN  64  59  83 SW6       30.10R
$$
MIZ007>008-015-290600-
EASTERN UPPER MICHIGAN

CITY           SKY/WX    TMP DP  RH WIND       PRES   REMARKS
KINROSS        CLOUDY    64  63  94 S6        30.04S
MACKINAC ISLAN CLOUDY    66  58  76 SW16G26   30.05S
NEWBERRY       CLOUDY    63  62  96 SW9       30.03R
S. S. MARIE    CLOUDY    64  60  87 SE6       30.03F
$$
MIZ004>006-011>014-085-290600-
CENTRAL UPPER MICHIGAN

CITY           SKY/WX    TMP DP  RH WIND       PRES   REMARKS
MANISTIQUE     CLOUDY    64  62  94 SW5       30.03R
ESCANABA       CLOUDY    64  61  88 SW10      30.04R
MENOMINEE      CLOUDY    63  55  77 W9        30.08S
SAWYER-GWINN   CLEAR     65  61  86 W12       30.04R
$$
MIZ001>003-009>011-084-290600-
WESTERN UPPER MICHIGAN

CITY           SKY/WX    TMP DP  RH WIND       PRES   REMARKS
IRON MOUNTAIN  CLOUDY    64  59  83 SW10      30.05R
HOUGHTON       PTCLDY    67  59  75 W16       29.97R
COPPER HARBOR    N/A     69  61  75 W9G21     29.93R
IRONWOOD       PTCLDY    64  61  88 SW14G21   30.01R
$$

ABBREVIATIONS USED IN REMARKS
   TC - TEMPERATURE IN CELSIUS
  WCI - WIND CHILL INDEX
   HX - HEAT INDEX
  VSB - VISIBILITY




USA.gov is the U.S. government's official web portal to all federal, state and local government web resources and services.